Theta_e
336 336 335 334 334 334 334 333 334 332 330 329 329 333 334 335 335 335 334 334 335 337 338 338 338 338 338 338 338 339 338 337 336 335 334 333 331 330 329 329 328 328
336 336 336 335 334 334 335 335 334 334 332 331 330 330 333 334 335 335 334 334 335 336 337 338 338 338 337 337 337 337 337 337 336 336 334 333 332 331 330 329 329 328
337 336 336 334 334 333 334 335 335 335 335 334 332 331 331 333 334 334 335 334 334 335 336 337 337 337 337 337 337 337 337 336 336 336 334 333 332 331 331 330 329 328
337 337 336 336 335 334 335 335 335 335 336 335 333 333 332 333 333 334 334 335 334 334 335 336 337 337 337 337 336 336 337 337 337 336 334 333 333 332 331 330 329 329
337 337 337 336 336 335 335 335 335 335 335 336 336 334 333 333 333 333 334 334 334 334 335 335 337 337 337 336 336 336 336 336 336 335 334 333 333 332 331 330 329 328
338 338 338 337 336 336 335 334 335 336 335 336 336 335 334 334 333 333 333 333 334 334 335 335 336 337 337 336 336 336 336 335 335 335 334 333 332 332 332 331 330 329
337 338 337 337 337 336 335 335 335 336 336 337 337 336 335 334 334 334 333 334 334 334 335 335 335 336 337 336 335 335 335 335 335 334 334 333 332 331 332 331 330 329
337 338 338 338 337 336 336 336 335 336 337 337 336 337 336 335 335 335 334 334 334 334 335 335 336 336 336 336 335 334 334 335 335 334 333 333 332 331 331 331 330 329
338 338 338 338 337 336 336 337 336 336 337 337 337 337 337 337 336 336 336 335 334 334 335 335 336 336 336 336 335 334 334 334 334 334 333 332 331 331 331 331 329 329
338 338 338 338 337 337 337 337 338 337 337 337 337 338 337 337 337 337 336 336 335 334 334 335 335 336 336 336 336 335 334 334 333 333 333 333 332 331 331 330 329 328
336 339 338 338 338 338 338 338 338 338 338 337 337 337 338 338 337 337 336 336 335 335 335 334 335 335 335 335 336 336 335 334 333 333 333 333 332 332 332 330 329 328
331 334 338 339 339 339 339 339 339 339 339 339 338 337 338 338 338 337 337 336 336 336 335 335 335 335 335 336 336 336 335 335 334 333 332 332 332 331 331 330 329 328
329 329 335 339 339 340 341 340 340 339 339 339 339 339 338 338 338 338 337 337 337 336 336 336 335 335 335 336 336 336 335 335 334 333 332 332 331 331 330 329 328 327
332 334 335 340 341 341 341 341 341 340 340 340 339 339 338 338 338 338 338 337 337 337 336 336 335 335 335 335 336 336 335 335 334 333 332 331 330 330 329 328 327 326
331 332 334 337 338 340 340 341 341 341 341 340 339 339 339 339 339 339 338 337 337 337 336 336 335 335 335 335 335 335 336 334 334 333 332 331 330 329 328 328 327 326
327 330 334 337 339 340 340 341 341 341 341 340 340 340 339 339 339 338 338 337 336 336 336 336 336 336 329 321 323 334 335 335 334 333 332 331 329 328 327 326 326 325
327 328 330 332 335 338 340 340 340 341 341 340 340 340 339 339 338 338 337 337 337 336 336 336 336 335 320 313 312 316 331 335 334 333 332 331 330 328 326 325 324 324
332 331 331 332 335 337 338 339 340 340 340 340 340 340 339 339 338 338 338 337 337 337 336 336 336 324 314 310 309 310 317 333 334 333 331 331 330 328 327 325 324 322
333 334 335 335 335 335 336 336 338 339 339 339 339 340 340 338 338 338 337 338 337 336 335 335 335 321 311 309 308 307 309 322 334 333 331 330 329 328 327 326 324 322
329 329 330 331 333 334 334 334 335 336 338 340 340 339 339 338 338 337 338 337 337 336 335 336 335 323 310 308 307 306 306 313 334 332 331 330 329 329 327 326 324 322
325 327 328 329 329 330 330 332 333 334 336 338 339 339 339 338 338 337 337 336 337 337 336 335 336 319 309 307 306 305 305 309 332 333 331 330 330 329 328 326 324 322
319 321 324 326 328 329 330 332 333 333 333 334 336 338 339 339 339 339 337 336 337 336 335 334 336 315 309 306 305 304 304 317 329 332 330 329 329 328 327 326 323 321
318 319 320 320 321 322 323 325 326 326 325 325 326 329 335 338 339 338 338 338 336 336 335 335 335 320 307 306 304 303 305 321 328 331 330 329 328 328 327 325 323 320
315 317 319 320 320 320 320 321 322 324 326 327 326 325 325 328 331 336 339 338 336 336 336 335 335 326 308 305 303 301 310 323 328 330 330 329 328 327 326 325 323 318
314 316 318 320 320 321 321 321 321 322 324 325 326 327 327 327 325 327 332 337 338 337 327 332 335 328 307 304 301 301 310 325 328 329 329 328 327 326 325 324 323 317
312 314 316 319 320 321 322 322 324 324 324 324 324 325 326 327 327 327 326 328 329 333 335 333 334 334 314 302 302 301 305 324 329 329 328 327 327 325 323 322 320 318
Wind_Speed
15 14 15 14 14 13 13 13 12 13 13 12 13 13 14 13 12 14 14 12 13 13 12 12 11 11 11 10 10 10 9 11 10 9 10 11 10 10 10 10 9 9
17 16 14 13 12 11 11 13 13 13 14 14 14 12 11 11 13 14 14 13 13 13 12 12 12 12 12 11 11 11 10 10 11 8 10 12 10 10 11 11 11 9
17 16 16 15 15 15 16 15 14 13 13 14 13 11 11 11 12 13 13 13 13 13 13 12 12 12 12 11 11 11 11 11 12 10 10 11 10 10 11 10 9 10
18 17 16 16 15 15 15 14 13 12 11 10 12 13 12 11 12 13 13 14 13 13 12 12 13 12 12 12 12 11 11 11 11 9 10 9 10 10 10 9 9 9
18 17 15 15 14 14 13 13 14 13 13 14 13 11 11 11 12 13 13 13 13 13 12 13 12 13 12 12 12 11 11 11 10 10 10 11 10 10 9 8 10 10
16 16 17 16 15 15 14 14 15 15 14 13 13 12 13 13 12 13 13 14 13 13 13 13 13 12 12 12 11 11 11 11 10 11 11 12 10 9 8 9 10 11
18 17 17 15 16 15 15 15 14 14 14 13 11 12 12 13 14 14 14 14 13 13 14 14 14 13 12 11 12 12 11 12 11 12 13 11 10 10 9 10 11 12
18 17 17 16 17 17 16 15 14 13 13 13 13 13 13 14 15 13 13 14 13 14 14 14 14 14 13 12 13 13 12 10 11 13 13 12 10 11 11 10 10 11
16 16 16 17 17 15 16 15 14 13 12 13 14 12 12 13 14 14 14 14 14 13 13 13 14 14 13 13 14 14 14 13 12 13 14 13 13 13 12 11 10 11
13 13 15 15 16 15 15 14 13 12 12 13 13 12 12 12 13 13 13 13 14 14 14 14 14 14 14 14 15 14 14 14 13 13 13 14 14 13 12 12 13 12
13 13 14 15 16 14 16 15 14 13 12 13 12 12 12 11 11 12 13 13 14 15 15 15 15 15 14 14 14 13 14 13 14 13 14 14 14 14 13 13 13 13
13 14 14 15 15 14 15 15 15 15 14 13 14 14 13 12 13 12 12 15 15 15 15 15 14 14 15 15 14 13 13 13 13 14 14 14 13 13 13 13 13 13
14 14 15 15 15 14 13 13 14 15 15 14 13 13 13 13 13 14 13 14 15 14 14 15 14 13 13 13 13 14 14 14 14 14 13 13 13 13 13 13 13 12
11 15 17 17 15 15 15 15 15 15 15 14 12 13 13 14 15 15 14 14 14 14 14 13 13 12 13 13 14 14 14 14 14 14 14 13 13 13 13 13 13 12
11 15 17 17 16 15 14 15 15 15 14 13 13 13 12 14 14 14 14 14 14 14 14 13 13 13 13 13 14 15 14 15 15 14 14 13 13 12 12 12 12 12
14 14 16 16 14 13 13 14 13 13 13 13 14 14 14 13 13 14 14 15 15 15 14 12 12 12 16 21 18 14 14 13 12 13 14 13 13 12 12 12 13 12
12 14 16 16 14 12 12 12 13 12 13 13 14 15 15 14 14 14 14 15 16 15 15 14 13 13 21 20 20 21 15 13 14 13 13 13 13 13 13 12 11 11
13 18 17 15 12 11 12 12 12 12 13 13 14 15 14 13 14 15 16 15 14 15 15 15 14 18 21 20 20 21 19 15 12 12 12 13 13 13 12 11 11 10
11 11 11 11 11 12 11 11 12 13 13 14 15 14 13 14 15 16 16 15 15 16 16 16 15 19 20 20 21 21 22 19 12 12 12 13 13 13 12 12 11 10
9 10 11 11 10 11 11 12 12 14 14 14 13 13 14 15 16 17 16 16 16 16 16 15 16 19 20 21 21 22 22 19 14 13 12 13 14 13 12 13 12 12
7 8 10 11 11 11 10 11 12 13 14 13 13 14 15 15 16 17 16 17 17 16 15 16 15 20 20 22 21 22 22 19 15 12 12 12 13 14 14 14 13 12
6 6 7 8 9 10 10 10 8 7 8 9 11 13 13 14 15 16 17 18 17 17 16 17 16 20 20 21 22 21 21 14 14 14 13 13 13 13 13 12 12 12
6 6 6 7 8 8 9 10 11 12 10 8 9 12 13 14 15 15 15 16 17 17 18 17 16 18 20 21 21 22 17 13 14 14 13 13 14 13 13 12 12 13
5 5 6 7 7 9 10 10 9 10 12 11 13 13 12 15 13 14 14 15 17 18 17 17 16 17 20 20 21 21 20 15 14 13 13 13 12 12 12 12 14 19
4 4 5 6 7 8 8 9 10 11 12 11 11 12 14 13 9 12 14 14 15 17 19 19 16 15 17 19 20 22 20 14 14 13 14 13 12 12 11 11 11 14
4 5 5 6 8 9 8 9 8 8 9 11 12 11 12 13 13 13 12 12 12 14 13 15 15 13 12 20 20 22 24 16 12 13 14 15 13 12 11 10 10 9
Wind_Direction
205 201 200 201 204 201 198 198 197 197 195 191 195 199 195 195 186 193 198 197 200 201 199 197 195 196 199 199 199 199 202 206 206 202 200 199 205 203 207 208 206 207
205 202 202 205 206 204 202 199 199 199 197 194 198 194 193 184 193 193 195 197 199 203 199 198 197 196 196 198 197 199 203 204 208 200 199 201 205 202 210 205 206 206
203 202 203 203 204 203 203 201 199 200 200 202 197 189 190 190 191 196 196 196 198 200 200 200 200 199 197 198 196 200 202 204 209 202 198 203 200 203 210 204 206 203
205 203 203 204 206 207 204 201 200 201 202 199 200 197 190 190 192 195 199 198 198 199 199 198 201 200 199 198 196 202 204 206 208 199 203 203 203 202 204 200 206 207
202 203 204 205 208 209 208 205 201 200 200 202 201 192 189 188 191 196 198 201 200 198 196 199 199 202 199 198 197 202 203 206 204 201 203 205 205 200 203 195 203 208
204 204 202 203 203 204 206 207 205 203 203 201 198 193 193 188 190 196 198 201 201 199 198 197 198 200 198 198 195 203 200 203 202 200 205 206 205 202 201 200 203 209
200 200 203 203 204 205 208 209 208 205 204 204 196 196 189 187 193 196 198 202 200 201 201 199 198 197 197 197 197 200 201 201 198 200 204 207 202 203 205 201 206 210
201 199 201 200 203 204 206 207 208 205 204 201 201 200 190 192 194 195 197 200 201 204 203 202 200 199 196 197 201 201 200 199 201 200 204 205 200 206 204 205 205 210
204 202 200 201 203 205 207 207 207 207 204 204 205 201 196 197 195 194 196 197 203 205 204 203 202 201 198 198 203 201 200 200 201 201 203 203 204 207 205 203 204 210
222 212 203 202 205 206 207 206 205 208 206 209 209 204 200 201 197 195 193 195 201 204 204 205 204 203 201 202 203 201 202 202 200 202 204 206 206 206 204 202 207 209
250 222 211 206 206 206 207 204 205 206 208 210 208 208 205 200 200 196 196 196 200 204 205 205 206 203 201 203 205 204 204 203 203 204 205 207 207 206 205 205 206 209
237 244 225 213 210 209 207 206 206 207 207 207 206 207 204 202 200 199 200 201 204 206 206 207 206 203 204 204 204 204 205 206 205 205 207 207 207 207 206 206 208 208
211 230 245 222 212 208 208 208 210 212 211 210 206 205 203 204 203 202 202 205 207 206 207 207 206 205 205 205 204 204 205 206 207 207 206 207 209 207 207 207 208 206
248 230 228 234 216 209 206 206 209 210 212 212 205 204 206 206 205 204 204 204 207 206 208 206 205 205 207 207 206 204 205 208 207 206 206 207 208 207 206 207 206 205
241 245 238 233 220 215 209 209 210 210 211 210 207 207 208 209 208 206 205 206 208 206 205 202 203 206 207 207 206 206 206 208 207 207 205 206 206 207 208 208 207 205
219 236 245 236 226 214 212 212 212 212 211 210 210 211 210 208 208 207 208 208 209 209 205 201 204 207 210 208 204 203 205 208 206 207 206 204 203 204 208 210 208 205
215 229 235 236 224 217 215 213 212 212 211 211 212 212 212 210 207 207 209 211 210 209 207 205 206 209 210 206 205 203 202 205 205 207 205 203 203 202 206 207 211 209
211 218 223 227 226 218 218 216 215 213 213 213 213 214 213 210 209 211 212 211 212 212 211 209 210 211 206 203 202 203 201 203 204 205 203 205 203 203 204 203 206 205
230 236 239 237 231 227 224 221 219 217 216 214 214 214 212 211 211 212 214 212 212 213 214 213 215 210 203 199 200 201 202 201 204 203 201 205 203 201 202 203 203 203
221 228 238 243 242 239 233 227 223 223 220 216 216 213 212 212 212 213 213 212 213 214 215 218 217 212 199 198 200 200 199 199 207 201 203 204 203 201 200 203 202 201
205 214 226 234 236 237 240 241 236 233 227 221 218 216 214 213 212 212 213 214 214 212 215 218 221 211 196 198 199 196 196 195 207 203 203 205 205 203 200 199 198 199
194 207 218 225 225 223 224 228 232 241 260 261 244 228 220 218 217 213 212 213 212 211 214 219 222 211 198 197 195 195 188 192 205 207 205 205 206 205 203 198 194 195
193 199 209 218 225 232 232 230 224 224 221 223 256 275 263 234 220 214 215 213 211 212 213 217 221 212 199 196 192 187 175 196 203 208 208 206 207 204 202 198 193 193
215 206 214 221 221 225 230 233 234 235 234 213 211 215 241 268 265 245 224 215 213 213 211 215 220 214 198 195 188 177 179 192 201 205 212 208 209 203 201 201 197 191
227 228 224 231 236 235 229 227 224 221 226 222 216 217 214 219 234 270 263 241 225 214 211 212 219 217 192 191 183 179 184 193 196 205 209 212 206 206 202 200 199 194
225 227 233 232 237 241 238 234 230 226 227 225 228 224 223 224 213 206 234 266 268 243 223 211 217 216 187 190 182 183 186 190 198 202 211 212 205 202 197 203 199 193